This is the latest recevied weather packets stored in our database for station/object KD2DXJ. If no packets are shown the sender has not sent any weather packets the latest 10 day(s).
| Time | Temp. | Humidity | Pressure | Rain* | Wind** | Luminosity | Snow |
|---|---|---|---|---|---|---|---|
| 1777737182 | 6.67° C | 66% | 1012.5 hPa | 0 mm | - | 110 W/m² | - |
| 1777736877 | 7.22° C | 68% | 1012.5 hPa | 0 mm | - | 139 W/m² | - |
| 1777736264 | 7.78° C | 66% | 1012.4 hPa | 0 mm | - | 153 W/m² | - |
| 1777735960 | 8.33° C | 68% | 1012.5 hPa | 0 mm | - | 184 W/m² | - |
| 1777735658 | 8.89° C | 67% | 1012.5 hPa | 0 mm | - | 551 W/m² | - |
| 1777735355 | 8.33° C | 65% | 1012.3 hPa | 0 mm | - | 750 W/m² | - |
| 1777735053 | 7.78° C | 66% | 1012.4 hPa | 0 mm | - | 260 W/m² | - |
| 1777734750 | 8.89° C | 67% | 1012.3 hPa | 0 mm | - | 254 W/m² | - |
| 1777734447 | 7.78° C | 64% | 1012.4 hPa | 0 mm | - | 500 W/m² | - |
| 1777734144 | 7.22° C | 71% | 1012.4 hPa | 0 mm | - | 513 W/m² | - |
| 1777733840 | 7.22° C | 72% | 1012.5 hPa | 0 mm | - | 348 W/m² | - |
| 1777733537 | 7.22° C | 74% | 1012.4 hPa | 0 mm | - | 356 W/m² | - |
| 1777733233 | 6.67° C | 78% | 1012.5 hPa | 0 mm | - | 308 W/m² | - |
| 1777732930 | 6.67° C | 82% | 1012.5 hPa | 0 mm | - | 290 W/m² | - |
| 1777732626 | 6.11° C | 81% | 1012.6 hPa | 0 mm | - | 285 W/m² | - |
| 1777732324 | 5.56° C | 84% | 1012.6 hPa | 0 mm | - | 236 W/m² | - |
| 1777732021 | 5.56° C | 88% | 1012.6 hPa | 0 mm | - | 161 W/m² | - |
| 1777731718 | 5° C | 86% | 1012.6 hPa | 0 mm | - | 145 W/m² | - |
| 1777731415 | 5° C | 88% | 1012.7 hPa | 0 mm | - | 140 W/m² | - |
| 1777731113 | 5° C | 90% | 1012.6 hPa | 0 mm | - | 158 W/m² | - |
| 1777730811 | 5° C | 92% | 1012.7 hPa | 0 mm | - | 129 W/m² | - |
| 1777730508 | 5° C | 91% | 1012.5 hPa | 0 mm | - | 127 W/m² | - |
| 1777730203 | 5° C | 93% | 1012.5 hPa | 0 mm | - | 139 W/m² | - |
| 1777729900 | 5° C | 93% | 1012.7 hPa | 0 mm | - | 172 W/m² | - |
| 1777729597 | 5° C | 94% | 1012.7 hPa | 0 mm | - | 146 W/m² | - |
* Rain latest hour (hover to see other rain measurements)
** Current wind speed in m/s (hover to see current wind gust speed)